Weather Roundup
Issued by NWS Corpus Christi, TX

Home | Current Version | Previous Version | Text Only | Print | Product List | Glossary On
Versions: 1 2 3 4 5 6 7 8 9 10 11 12 13 14 15 16 17 18 19 20 21 22 23 24 25 26 27 28 29 30 31 32 33 34 35 36 37 38 39 40 41 42 43 44 45 46 47 48 49 50
000
ASUS44 KCRP 210010
HRRCRP

SOUTH TEXAS REGIONAL WEATHER ROUNDUP
NATIONAL WEATHER SERVICE CORPUS CHRISTI TX
700 PM CDT WED AUG 20 2014


TXZ229>244-210100-
...CORPUS CHRISTI AREA OBSERVATIONS...

CITY           SKY/WX    TMP DP  RH WIND       PRES   REMARKS
CORPUS CHRISTI PTSUNNY   89  75  63 SE26G36   29.90R HX  99
NAS CORPUS CHR PTSUNNY   87  79  76 SE23G33   29.90R HX 101
ROCKPORT       LGT RAIN  88  77  69 SE16G25   29.92R HX 100
KINGSVILLE NAS PTSUNNY   89  76  65 SE20G33   29.88R HX 100
ALICE          MOSUNNY   91  74  57 SE21G31   29.86R HX 100
FALFURRIAS     SUNNY     98  75  47 SE20G28   29.85R HX 110
$$

...VICTORIA AREA OBSERVATIONS...

CITY           SKY/WX    TMP DP  RH WIND       PRES   REMARKS
VICTORIA       MOSUNNY   90  76  63 S23       29.93R HX 101
BEEVILLE       FAIR      90  72  55 SE21G30   29.90R HX  97
PLEASANTON     SUNNY     94  68  41 SE16G23   29.86S HX  99
SAN ANTONIO    MOSUNNY   96  68  39 SE22G29   29.88R HX 101
$$

...LAREDO AREA OBSERVATIONS...

CITY           SKY/WX    TMP DP  RH WIND       PRES   REMARKS
LAREDO         MOSUNNY  101  65  30 SE13G22   29.82S HX 104
COTULLA        SUNNY     98  65  33 SE21      29.81S HX 101
DEL RIO        MOSUNNY   98  61  29 SE12G20   29.82R HX  98
MCALLEN        SUNNY     92  72  51 SE28G33   29.86R HX  99
HEBBRONVILLE   SUNNY     97  62  32 SE18G26   29.85S HX  98
$$

...OTHER TEXAS OBSERVATIONS...

CITY           SKY/WX    TMP DP  RH WIND       PRES   REMARKS
BROWNSVILLE    MOSUNNY   89  77  67 SE20G30   29.90R HX 101
HOUSTON        CLOUDY    83  74  74 SE9       29.96S
COL. STATION   CLOUDY    83  72  69 SE14      29.93S
AUSTIN         MOSUNNY   97  65  34 S20G26    29.86S HX  99
WACO           MOSUNNY   96  64  34 SE17G23   29.87F HX  98
FORT WORTH     MOSUNNY   95  65  37 S13       29.88S HX  97
WICHITA FALLS  SUNNY     98  56  24 SE20G28   29.81F HX  96
LUBBOCK        PTSUNNY   89  60  37 S15       29.90S
EL PASO        MOSUNNY   91  50  24 W10G24    29.93S
$$

...MARINE OBSERVATIONS...

STATION/POSITION TIME  SKY/WX   TEMP    WIND        PRES    VSBY  WAVE   SWELL
                                AIR SEA DIR/SP/G                  HT/PER HT/PER
                 (UTC)          (F)     (DEG/KT/KT) (MB)    (MI)  (FT/S) (FT/S)
PORT ARANSAS     2300            84 86  130/ 16/ 18 1013.7S
BUOY 90 E PORT A 0000            86 85  140/ 14/ 16 1015.1R         3/ 5
BUOY 45 SE BAFFI 0000            85 86  150/ 16/ 19 1012.5R         4/ 6
BUOY 200 E PT IS 0000            86 86  150/ 14/ 16 1015.2R         3/ 6   2/ 9
BUOY 15 E GALVES NOT AVBL
$$



USA.gov is the U.S. government's official web portal to all federal, state and local government web resources and services.